Location: T�chigga el Be�da
(16.4766°N, 9.3887°W)
Time: 09:29:18
(UTC+00:00)

MOS 1 - Pass Details

Date: 27 February 2020
Orbit: 878 x 891 km, 99.2° (Epoch: 28 March)

Event Time Altitude Azimuth Distance (km) Brightness Sun altitude
Exits shadow 20:27:47 64° 58° (ENE) 976 4.2 -25.6°
Drops below altitude 10° 20:33:04 10° 355° (N) 2,536 6.7 -26.9°
Sets 20:35:28 0° 353° (N) 3,474 7.5 -27.5°
